Location: *
(26.2500°S, 49.3833°W)
Time: 06:56:04
(UTC+00:00)

Daily predictions for brighter satellites

Satellite Brightness Start Highest point End
(mag) Time Altitude Azimuth Time Altitude Azimuth Time Altitude Azimuth
KORONAS-FOTON 4.5 21:27:06 10° NNE 21:30:32 33° E 21:34:01 10° SSE
Meteor 2-14 Rocket 4.5 21:26:19 10° N 21:32:20 63° E 21:38:26 10° SSE
STARLINK-1129 3.6 21:29:22 10° NNW 21:33:29 71° NE 21:37:40 10° SE
Okean-O 3.5 21:31:04 10° SE 21:34:56 28° E 21:38:45 10° NNE
Cosmos 1745 Rocket 4.4 21:30:31 10° NNE 21:36:11 40° E 21:41:53 10° SSE
STARLINK-80 3.8 21:33:09 10° SSW 21:36:51 44° SE 21:40:30 10° ENE
STARLINK-1134 3.6 21:34:20 10° NW 21:38:29 81° NE 21:42:40 10° SE
Cosmos 2228 4.0 21:37:59 10° SSE 21:41:34 25° E 21:45:06 10° NE
Cosmos 1452 Rocket 3.5 21:38:06 10° NNW 21:43:23 85° ENE 21:48:43 10° SSE
STARLINK-1135 3.6 21:39:17 10° NW 21:43:27 89° SW 21:47:39 10° SE
Cosmos 407 Rocket 3.5 21:38:41 10° SSW 21:44:03 87° E 21:49:17 10° NNE
STARLINK-1162 3.7 21:41:07 10° NW 21:45:18 83° SW 21:49:32 10° SE
Fermi 3.8 21:41:20 10° WNW 21:45:24 71° N 21:48:56 13° E
Aureole 3 2.7 21:42:53 10° S 21:45:56 89° E 21:49:17 10° N
NOSS 3-1 (C) 4.3 21:37:25 10° NNW 21:46:16 68° ENE 21:54:32 10° SE
Cosmos 1892 Rocket 3.8 21:43:16 10° NNE 21:47:31 47° E 21:51:47 10° SSE
STARLINK-1141 3.8 21:44:16 10° NW 21:48:25 78° SW 21:52:37 10° SE
GPS 2-14 Rocket1 3.7 21:45:09 10° WNW 21:48:46 36° N 21:52:14 11° ENE
STARLINK-1157 3.9 21:46:04 10° NW 21:50:15 73° SW 21:54:28 10° SE
Meteor 2-16 Rocket 4.4 21:45:58 10° N 21:52:01 64° E 21:58:07 10° SSE
Cosmos 332 Rocket 4.0 21:47:29 10° N 21:52:11 50° ENE 21:56:55 10° SSE
Meteor 1-24 Rocket 4.0 21:47:32 10° NNE 21:52:27 39° E 21:57:34 10° SSE
Cosmos 1606 Rocket 4.0 21:48:58 10° SSE 21:53:06 39° E 21:57:12 10° NNE
STARLINK-1140 3.9 21:49:14 10° NW 21:53:23 69° SW 21:57:33 10° SE
STARLINK-1159 4.1 21:51:05 10° NW 21:55:15 64° SW 21:59:26 10° SSE
H-II Stage 2 2.2 21:52:50 10° W 21:55:21 65° S 22:01:33 15° E
STARLINK-1156 4.1 21:54:17 10° NW 21:58:22 60° SW 22:02:32 10° SSE
Atlas Centaur 2 3.7 21:54:17 10° NNW 21:58:42 20° NNE 22:01:35 13° ENE
STARLINK-1171 4.3 21:56:07 10° NW 22:00:15 56° SW 22:04:24 10° SSE
STARLINK-1148 4.4 21:59:16 10° NW 22:03:20 53° SW 22:07:26 10° SSE
Envisat 3.8 21:59:11 10° S 22:04:12 56° WSW 22:09:10 10° NNW
CZ-2C R/B 3.7 22:00:56 12° ENE 22:04:35 24° ESE 22:08:54 10° SSE
STARLINK-26 3.0 22:01:44 10° SW 22:05:14 83° SE 22:08:02 15° NE
STARLINK-1155 4.5 22:01:11 10° WNW 22:05:15 50° SW 22:09:21 10° SSE
Meteor 1-16 Rocket 4.1 22:01:16 10° S 22:06:40 90° WNW 22:11:59 10° N
Cosmos 1954 Rocket 4.0 22:02:50 10° S 22:08:11 66° ESE 22:13:26 10° NNE
Aurora 2 Rocket 2.6 22:07:08 10° NW 22:10:03 36° NNE 22:11:13 27° ENE
STARLINK-55 3.2 22:07:01 10° SSW 22:10:10 46° SE 22:11:13 32° E
SL-24 R/B 4.5 22:09:42 15° NE 22:12:25 35° ESE 22:16:17 10° S
STARLINK-28 2.9 22:10:53 10° SSW 22:14:07 60° SE 22:15:10 36° ENE
Meteor 2-5 Rocket 3.8 22:09:01 10° N 22:14:34 83° W 22:20:17 10° S
STARLINK 1040 3.1 22:11:59 10° SSW 22:14:28 38° SE 22:14:28 38° SE
Cosmos 1340 Rocket 3.2 22:10:42 10° S 22:14:37 42° E 22:18:30 10° NNE
Cosmos 1626 2.3 22:13:25 10° NNE 22:17:00 47° E 22:20:38 10° SSE
SL-14 R/B 3.3 22:15:16 10° N 22:19:04 54° E 22:22:54 10° SSE
Delta 7925 Rocket 4.3 22:12:57 10° WNW 22:19:29 82° N 22:24:41 25° E
STARLINK-33 2.9 22:17:02 10° SSW 22:20:16 59° SE 22:20:47 50° E
CZ-4 R/B 4.4 22:18:52 10° SSE 22:23:06 89° ENE 22:27:16 10° NNW
STARLINK-66 2.8 22:22:06 10° SW 22:25:21 74° SE 22:25:45 63° ENE
Cosmos 1908 3.1 22:23:44 10° S 22:27:36 89° WSW 22:31:26 10° N
TELKOM 3 4.0 22:23:06 10° NW 22:27:41 75° NE 22:28:36 48° ESE
Cosmos 304 Rocket 3.6 22:24:11 10° N 22:28:58 76° ENE 22:33:48 10° SSE
Delta 168 3.8 22:26:01 10° NW 22:29:17 31° NNE 22:29:45 30° NE
Cosmos 1833 Rocket 4.0 22:25:33 10° SSE 22:28:54 22° SE 22:28:54 22° SE
CZ-4 R/B 1.3 22:26:43 10° S 22:30:47 88° WSW 22:34:42 10° NNW
USA 215 3.6 22:29:03 28° ESE 22:31:54 42° NE 22:38:00 10° NNW
Cosmos 1709 Rocket 3.9 22:26:20 10° N 22:32:23 67° E 22:38:33 10° SSE
Okean 1-7 Rocket 4.4 22:28:03 10° NNW 22:32:23 53° W 22:36:50 10° S
Cosmos 1939 Rocket 2.7 22:28:18 10° SSE 22:32:27 76° ENE 22:36:28 10° N
YAOGAN 1 2.4 22:31:28 10° SSE 22:35:51 77° ENE 22:40:10 10° N
STARLINK-75 3.0 22:32:40 10° SW 22:35:36 70° SSW 22:35:36 70° SSW
COSMOS 2406 3.2 22:34:24 10° S 22:40:00 54° ESE 22:41:32 42° ENE
Cosmos 2297 3.9 22:37:08 10° N 22:42:35 46° ENE 22:42:49 46° E
FUSE 3.9 22:38:00 10° W 22:43:25 78° N 22:44:40 54° ENE
Cosmos 2278 Rocket 3.6 22:38:22 10° NW 22:43:38 39° WSW 22:48:57 10° S
CSL-04 Rocket 3.5 22:41:12 10° SSE 22:46:40 70° ENE 22:51:59 10° N
Cosmos 2058 Rocket 3.2 22:48:47 10° S 22:53:18 75° W 22:56:28 19° N
MERIDIAN 1 4.2 22:47:03 10° NNW 22:54:05 46° N 22:54:05 46° N
STARLINK-48 4.4 22:53:38 10° SW 22:57:23 44° NW 22:57:32 43° NW
Cosmos 1850 Rocket 3.8 22:53:06 10° S 22:58:25 75° ESE 22:58:25 75° ESE
MOS 1 Rocket 3.4 23:00:54 55° NNE 23:02:06 90° WSW 23:07:09 10° S
DELTA 2 R/B (1) 4.1 23:01:48 10° NW 23:06:11 47° N 23:06:11 47° N
FALCON 9 R/B 2.6 23:03:22 10° W 23:10:28 41° SSW 23:10:28 41° SSW
Meteosat 1 Rocket2 4.2 23:08:42 10° W 23:12:57 45° NNW 23:12:57 45° NNW
Centaur D AC-29 2.9 23:11:12 10° WNW 23:27:21 48° N 23:27:21 48° N
CZ-2C R/B 4.3 23:42:28 23° NW 23:44:36 31° W 23:49:26 10° SW
Atlas Centaur 2 4.0 23:42:10 10° WNW 23:44:13 21° NW 23:44:13 21° NW
